Location: M?digepalle
(16.1753°N, 80.3496°E)
Time: 08:27:51
(UTC+00:00)

Delta 128 - Pass Details

Date: 29 October 2020
Orbit: 608 x 1216 km, 28.0° (Epoch: 27 November)

Event Time Altitude Azimuth Distance (km) Brightness Sun altitude
Exits shadow 22:45:14 59° 74° (ENE) 696 3.9 -26.7°
Drops below altitude 10° 22:49:05 10° 107° (ESE) 1,973 7.1 -25.8°
Sets 22:51:29 0° 110° (ESE) 2,918 8.3 -25.2°
